Temp
23 23 23 23 23 23 23 23 23 23 23 23 23 23 23 23 23 23 23 22 22 21 21 21 21 21 21 21 21 21 20 20 20 20 20 20 19 19 20 20 20 19 19 19 19 19 19 19 18 19 19 19 19 19 19 19 18 18 18 18 19 19 19 19 19 17 17 18 18 17 17 17 16 15 15 15 14 14 14 14 13 13 13 13 13
23 23 23 23 23 23 23 23 23 23 23 23 23 23 23 23 23 23 23 22 22 22 21 21 21 21 21 21 21 21 20 20 20 20 20 20 19 19 19 20 20 19 19 19 19 19 19 19 19 19 19 19 19 19 19 18 18 18 18 18 18 19 19 19 18 17 16 17 17 16 16 16 16 16 15 15 15 14 14 14 14 13 13 13 13
24 23 23 23 23 23 23 24 23 23 23 23 23 23 23 23 23 23 23 22 22 22 22 22 21 22 21 21 21 21 21 20 20 20 20 20 19 19 19 20 20 19 19 19 19 19 19 19 19 19 19 19 19 19 18 18 18 17 18 18 18 19 19 18 18 17 16 16 16 16 16 16 15 16 16 15 15 15 14 14 14 14 14 14 13
24 22 21 21 23 24 23 23 23 23 23 23 23 23 24 23 23 23 23 23 22 22 22 22 22 22 22 21 21 21 21 21 20 20 20 20 19 19 19 20 20 19 19 19 19 19 19 19 19 18 19 19 18 18 18 18 18 17 18 18 18 18 18 18 18 17 16 15 15 15 16 15 15 16 16 16 15 15 15 14 14 14 14 14 14
23 23 21 20 22 24 24 23 23 23 23 23 23 23 23 23 23 23 23 23 22 22 22 22 22 22 22 22 22 21 21 21 20 20 20 20 19 20 20 19 19 19 19 19 19 19 19 18 18 18 18 18 17 17 17 18 18 18 18 18 18 18 18 18 18 17 16 15 15 16 16 15 15 16 16 16 15 15 14 14 14 14 14 14 14
23 23 22 20 21 24 24 23 24 23 23 23 23 23 23 23 23 23 23 23 22 22 22 22 23 23 22 22 22 22 22 21 20 20 20 20 20 20 19 19 19 19 19 19 19 19 19 18 18 18 18 17 17 17 17 17 17 17 18 18 18 18 18 17 17 16 16 16 16 16 16 15 15 16 16 16 16 15 15 14 14 14 14 14 14
23 22 22 22 23 24 24 23 24 23 23 23 23 23 23 23 23 23 23 23 22 22 22 22 23 23 22 22 22 22 22 21 20 20 20 20 19 19 19 19 19 19 19 19 19 19 18 18 17 18 17 17 17 17 17 17 17 17 18 18 18 18 17 17 16 16 16 16 16 16 16 16 16 15 16 16 16 15 15 15 14 14 14 14 14
24 24 23 23 24 24 24 24 24 24 24 24 23 23 23 23 23 23 23 23 22 22 22 23 23 22 22 22 22 22 22 22 21 20 20 20 19 19 19 19 19 19 19 19 19 19 18 18 17 17 17 17 16 16 17 17 17 17 17 17 17 17 16 16 16 16 16 16 16 16 16 16 15 15 15 15 15 14 14 14 14 14 14 14 14
25 25 24 24 23 24 24 24 24 24 24 23 23 23 23 23 23 23 23 23 22 22 23 23 22 22 22 22 22 22 22 22 21 20 20 20 19 19 19 19 19 19 18 19 19 18 18 18 17 17 17 16 16 16 16 16 16 17 17 17 16 16 16 16 16 16 16 16 16 16 16 16 15 15 15 15 14 14 14 14 14 14 14 14 14
25 25 25 24 24 24 24 24 24 24 24 24 24 23 23 23 23 23 23 23 22 22 23 23 22 22 22 22 22 22 22 22 21 21 20 20 19 19 19 19 19 19 18 18 18 18 18 17 17 17 17 16 16 16 16 16 16 16 16 16 16 15 16 16 16 16 16 16 16 16 16 15 15 15 15 14 14 14 14 14 13 13 13 13 14
26 25 25 25 25 24 24 24 24 24 24 24 24 23 23 23 23 23 23 23 22 22 23 22 22 22 22 22 22 22 22 22 22 21 20 20 19 19 19 19 19 18 18 18 18 17 17 17 17 17 17 16 16 16 16 16 16 16 16 16 15 15 16 16 16 16 16 16 16 16 16 16 16 15 15 15 15 14 14 14 13 13 13 13 13
26 26 26 25 25 24 24 24 24 24 24 24 24 23 23 23 23 23 23 23 23 22 22 22 22 22 22 22 22 22 22 22 22 21 20 20 20 19 19 18 18 18 18 18 17 17 17 17 17 17 16 16 16 16 15 15 15 15 15 15 15 15 16 16 16 16 16 16 16 16 16 16 16 15 15 15 15 14 14 13 13 13 13 13 13
27 26 25 25 25 24 24 23 23 24 24 24 24 23 23 23 23 23 23 23 22 22 22 22 22 22 22 22 22 22 22 22 22 21 21 20 20 19 19 18 18 18 18 18 17 17 17 17 16 16 16 16 16 15 15 15 15 15 15 14 15 15 15 15 16 16 16 16 16 16 16 16 16 15 15 15 14 14 13 13 13 13 13 13 13
27 27 26 25 24 24 24 23 22 22 23 24 24 23 23 23 23 23 23 22 22 22 22 22 22 22 22 22 22 22 22 22 22 21 21 20 20 19 18 18 17 18 18 18 17 17 17 16 16 15 15 15 15 15 15 15 15 14 14 14 14 14 15 15 15 15 16 16 16 16 16 16 15 15 15 14 14 13 13 13 13 13 12 12 12
26 27 26 26 25 24 23 23 22 21 22 23 24 23 23 23 23 22 22 22 22 22 22 22 22 22 22 22 22 22 22 22 22 21 21 20 19 19 18 17 17 18 18 17 17 17 17 16 16 15 15 15 15 15 14 14 14 14 14 14 14 14 14 14 14 14 15 15 15 15 15 15 15 14 14 14 13 13 13 12 12 12 12 12 12
25 26 26 26 25 24 24 23 22 21 21 22 23 24 23 23 23 22 22 22 22 22 22 21 22 22 22 22 22 22 22 22 21 21 21 20 19 19 18 18 17 18 17 17 17 17 16 16 16 15 14 14 14 14 14 14 14 13 13 13 13 13 13 13 13 14 14 14 15 14 14 14 14 13 13 13 13 12 12 12 12 12 12 11 12
25 25 26 26 26 25 25 24 22 21 21 21 23 24 23 23 23 22 22 22 21 21 21 21 21 22 21 21 21 21 21 21 21 21 20 19 19 18 18 17 17 17 17 17 17 16 16 16 16 15 14 14 14 14 13 13 13 13 12 12 12 12 13 13 13 13 13 14 14 14 13 13 13 13 13 12 12 12 12 11 11 12 12 12 12
24 25 25 26 26 25 25 24 22 21 20 20 22 24 24 23 23 22 22 22 21 21 21 21 21 21 21 21 21 21 21 20 20 20 20 19 18 18 17 17 17 17 17 17 16 16 16 16 15 15 14 13 13 13 13 13 13 12 12 12 12 12 12 12 12 12 12 13 13 13 13 13 13 13 12 12 12 12 11 11 11 11 11 11 12
24 24 25 25 25 25 24 24 23 21 20 19 20 23 24 23 23 22 22 21 21 21 21 21 21 21 21 21 21 21 20 19 19 19 19 19 18 18 17 17 17 17 17 17 16 16 16 16 15 15 14 13 13 13 13 13 12 12 12 12 12 12 12 12 12 12 12 12 12 12 12 12 12 12 12 12 11 11 11 11 11 11 11 11 11
24 24 24 24 24 23 22 22 22 22 20 19 20 22 24 23 23 22 21 21 21 21 21 21 21 21 21 21 21 21 20 19 19 19 19 18 18 18 17 17 17 17 17 16 16 16 16 15 15 15 14 14 13 13 13 13 12 12 12 12 12 12 12 11 11 12 12 12 12 12 12 12 12 12 11 11 11 11 11 11 11 11 10 10 11
24 23 23 24 24 23 23 22 22 21 21 20 20 22 23 23 22 22 21 21 21 21 20 21 21 20 20 20 20 20 20 19 18 18 18 18 18 17 17 17 17 17 16 16 16 16 15 15 15 15 14 14 13 13 13 13 12 12 12 12 13 13 12 11 11 11 11 12 12 11 12 12 12 12 11 11 11 11 11 11 11 11 11 10 10
23 22 22 22 23 23 24 23 21 21 21 19 18 19 22 23 22 22 21 21 21 20 20 20 20 20 20 20 20 19 19 19 18 18 18 18 17 17 17 17 17 17 16 16 16 16 15 15 15 15 14 14 13 13 13 12 12 12 12 12 12 12 12 12 12 11 11 11 11 11 11 11 11 11 11 11 11 11 11 11 11 11 11 11 11
22 22 21 20 20 20 21 21 20 20 21 19 17 17 20 22 22 21 21 21 20 20 20 20 20 20 20 20 19 19 18 18 18 18 18 17 17 17 17 17 17 17 16 16 16 16 15 15 14 14 14 14 13 13 13 12 12 12 12 12 12 12 12 12 12 11 11 11 11 11 11 11 11 11 11 11 11 11 11 11 11 11 11 11 11
21 21 20 19 19 19 19 19 18 18 19 19 18 17 19 21 22 21 21 20 20 20 20 19 19 19 19 19 19 18 18 18 18 18 18 17 16 16 16 17 17 16 16 16 16 16 15 15 14 14 14 14 13 13 12 12 12 12 11 12 12 12 12 12 12 12 11 11 11 11 12 12 12 12 12 12 12 12 12 12 12 12 11 11 11
19 19 19 19 19 19 20 20 19 18 19 19 19 18 18 20 21 20 20 20 20 20 19 19 19 19 19 19 19 18 17 16 17 17 17 17 16 16 16 16 16 16 16 16 16 16 15 15 14 14 14 13 13 12 12 12 12 11 11 12 12 12 12 12 12 12 11 12 12 12 12 12 12 13 13 13 13 13 13 13 12 12 12 12 12
18 17 17 17 17 18 20 20 18 18 19 19 19 19 19 20 20 20 20 20 19 19 19 19 19 19 18 19 18 17 15 15 16 17 17 16 15 15 15 16 16 16 16 16 15 15 15 15 14 14 13 13 12 12 12 11 11 11 11 11 11 11 12 12 12 12 12 12 12 12 12 12 13 13 13 14 14 14 13 13 13 13 12 12 12
17 16 16 16 16 16 17 17 17 18 18 18 18 19 19 20 20 20 20 19 19 19 19 18 18 18 18 18 17 15 14 13 14 15 15 14 13 14 15 15 15 15 15 15 14 15 15 14 14 13 13 12 12 12 11 11 10 10 10 10 11 11 11 12 12 12 12 12 12 13 13 13 13 13 14 14 14 14 13 13 13 13 13 13 12
16 16 16 15 15 15 15 16 16 17 17 17 17 18 19 20 20 20 19 19 19 19 18 18 18 18 18 18 16 14 13 13 13 14 13 12 12 13 14 14 14 14 14 14 14 14 14 13 13 12 12 11 11 10 10 10 10 10 10 10 10 10 11 11 11 11 12 12 13 13 13 13 13 14 14 14 14 13 13 13 13 13 13 13 13
16 15 15 15 15 15 15 15 16 16 16 16 16 17 18 19 20 20 20 19 19 19 18 18 17 17 18 17 16 14 13 12 13 15 15 14 12 13 13 13 13 13 13 14 14 14 13 12 10 10 10 9 9 9 9 9 9 9 9 9 10 10 10 11 11 11 12 12 12 13 13 13 13 13 14 14 14 13 13 13 13 13 13 13 13
16 15 15 15 15 15 15 15 15 16 16 15 15 16 17 18 18 19 19 19 19 19 18 18 17 17 17 17 17 15 14 13 14 15 16 15 14 13 13 13 13 13 13 14 13 12 11 9 8 8 8 8 8 8 8 8 8 8 9 9 9 10 10 10 10 11 11 12 12 12 13 13 13 13 13 14 14 14 13 13 13 13 13 13 13
16 16 15 15 14 15 15 15 15 15 15 15 15 15 15 16 17 18 18 19 18 18 18 18 17 17 17 17 17 16 15 15 15 16 16 16 15 13 13 13 13 13 13 13 12 10 9 8 8 8 8 8 8 9 8 8 8 8 8 9 9 9 10 10 10 11 11 11 12 12 12 12 12 13 13 14 14 14 14 14 13 13 13 13 13
16 15 15 14 14 14 15 15 15 15 15 15 15 15 15 15 15 16 17 18 18 18 18 17 17 17 18 17 17 16 15 16 16 16 16 15 15 13 13 12 12 12 13 12 11 10 10 9 8 8 8 8 9 9 9 9 9 8 9 9 9 9 10 10 10 11 11 11 11 12 12 12 12 13 13 13 13 14 14 14 14 13 13 13 13
15 15 15 15 14 14 15 15 14 15 15 15 15 15 15 14 14 14 15 16 16 17 17 18 17 18 18 17 17 17 17 16 16 16 15 15 14 13 12 11 11 12 12 11 10 9 9 9 9 9 9 9 9 9 9 9 9 9 9 9 9 9 10 10 10 11 11 11 11 12 12 12 12 12 13 13 13 13 13 13 13 13 13 13 13
14 14 14 14 14 15 15 14 14 15 15 15 15 15 14 14 14 13 13 13 13 14 15 16 17 17 17 17 17 17 17 16 15 15 15 14 13 12 11 10 10 11 11 10 9 9 9 9 9 9 9 9 9 9 10 10 10 10 10 10 10 10 10 10 11 11 11 12 12 12 11 11 12 12 12 12 13 13 13 13 13 12 12 12 12
14 14 14 14 14 14 14 14 14 15 15 14 15 14 14 14 14 13 13 12 12 12 13 14 15 16 16 16 16 17 17 16 15 15 14 13 12 10 9 9 8 8 9 9 9 9 9 9 9 9 9 9 10 10 10 10 10 10 11 11 11 10 10 11 11 11 11 12 12 12 12 11 11 11 12 12 12 12 12 12 12 12 12 12 12
13 13 13 13 13 14 14 14 14 15 15 14 14 14 15 14 14 14 13 13 13 12 12 13 14 15 15 15 16 16 15 15 15 14 14 13 11 9 8 8 7 7 8 9 9 9 9 10 9 9 10 10 10 10 10 11 11 11 11 11 12 12 11 11 11 11 12 12 12 12 12 11 11 11 11 11 12 12 12 12 11 11 11 12 12
12 12 11 12 12 13 13 13 13 14 15 15 14 14 14 14 14 14 14 13 13 12 11 11 12 12 12 13 14 15 14 14 14 14 13 12 10 9 8 8 7 7 8 9 9 9 10 10 10 10 10 11 11 11 11 11 11 12 12 12 12 13 12 12 12 12 12 12 12 12 12 11 11 11 11 11 11 12 11 11 11 11 11 12 12
11 11 10 11 11 11 12 12 12 12 13 14 14 14 14 13 13 13 13 12 12 11 10 10 10 10 10 10 11 12 13 12 11 10 9 9 8 8 8 8 8 8 8 9 9 9 10 10 10 11 11 11 11 11 11 11 12 12 13 13 13 13 13 13 12 12 12 13 12 12 12 12 11 11 11 11 11 11 11 11 11 11 11 12 12
11 10 9 10 10 10 10 11 11 11 12 12 13 13 13 13 12 12 11 11 11 10 10 10 10 10 9 9 10 10 10 8 7 6 5 6 6 7 8 8 8 8 8 8 9 9 9 10 10 11 11 11 12 12 12 12 12 13 13 13 13 13 13 13 13 13 13 13 12 12 12 12 12 11 11 11 11 11 11 11 11 11 11 11 12
10 10 9 9 9 10 10 10 10 10 10 11 11 12 12 12 11 11 11 10 10 10 10 10 10 9 9 9 9 9 8 6 5 5 5 5 6 7 7 7 7 7 8 8 9 9 10 10 11 11 12 12 12 13 13 13 13 13 13 13 14 13 13 13 13 13 13 13 13 12 12 12 12 11 11 11 11 11 11 11 11 11 11 11 12
10 9 9 9 9 9 9 9 9 9 10 10 10 11 11 11 11 11 10 10 10 10 10 10 10 10 9 9 9 9 8 7 6 5 5 5 6 7 7 7 7 8 8 8 9 9 10 10 11 11 12 12 13 13 13 13 13 13 13 13 13 13 13 13 13 14 13 13 13 12 12 12 12 11 11 11 11 10 10 11 11 11 11 11 11
9 9 9 8 8 8 8 8 8 9 9 9 9 10 10 10 10 10 10 10 10 10 10 11 11 10 9 9 9 9 9 8 7 6 5 5 6 7 7 7 8 8 8 8 9 9 10 10 11 11 11 12 12 12 13 13 13 13 14 14 14 13 13 13 13 13 13 13 13 12 12 12 11 11 11 11 10 10 10 11 11 11 11 11 11
9 9 9 8 8 8 8 8 8 8 8 8 8 9 9 9 10 10 10 10 10 10 10 10 10 9 9 9 9 9 8 7 7 6 6 6 6 7 7 7 8 8 8 8 9 9 9 10 10 11 11 12 12 12 13 13 13 14 14 14 14 14 14 13 13 13 13 13 12 12 12 11 11 11 10 10 10 11 11 11 11 11 11 11 11
9 9 9 8 8 8 8 8 8 8 8 8 8 8 8 9 9 9 9 9 9 9 9 9 8 8 7 7 7 8 7 7 6 6 6 6 6 7 7 7 7 8 8 8 8 9 9 10 10 11 11 11 11 12 13 13 13 14 14 14 13 13 13 13 13 13 12 12 12 12 11 11 11 10 10 11 11 11 11 11 11 11 11 11 11
9 9 9 9 9 9 8 8 8 8 8 8 8 8 8 8 8 8 8 8 8 8 8 8 7 7 6 6 6 7 7 6 6 6 6 6 6 7 7 7 7 8 8 8 8 9 10 10 11 11 11 11 11 12 12 13 13 14 13 13 13 13 13 13 13 12 12 12 11 11 11 11 10 10 10 11 11 11 11 11 11 11 11 11 11
9 9 9 9 9 9 8 8 8 8 8 8 7 7 7 7 7 7 7 7 7 7 7 6 6 6 6 6 6 7 6 6 6 6 6 6 6 7 7 7 7 8 8 8 9 10 10 10 11 11 11 11 11 11 12 12 12 12 12 12 12 13 13 12 12 12 12 11 11 11 10 10 10 10 10 11 11 11 11 11 11 11 11 11 11
9 9 9 9 9 9 9 8 8 8 7 7 7 7 7 6 6 6 6 6 6 6 6 6 5 6 6 6 7 7 6 6 6 6 6 6 7 7 8 8 8 8 9 9 9 10 10 10 10 11 11 11 11 12 12 12 12 11 11 12 12 12 12 12 12 11 11 11 11 11 10 10 10 10 10 10 10 11 11 11 11 11 11 11 11
8 8 9 10 10 10 9 9 8 8 7 7 7 7 7 6 6 6 6 6 6 5 5 5 6 6 6 6 6 6 6 6 6 6 7 7 8 8 8 8 8 8 9 9 9 9 10 10 10 10 11 11 11 11 12 12 11 11 12 12 12 12 12 11 11 11 11 10 10 10 10 10 10 10 10 10 10 10 10 10 10 10 10 10 10
6 6 7 8 9 9 9 9 9 9 8 7 7 7 7 7 6 6 6 6 5 5 5 6 6 6 6 6 6 6 6 6 7 7 7 8 8 8 8 8 9 9 9 9 9 10 10 10 10 10 10 10 10 11 11 11 11 12 12 12 12 12 11 11 11 10 10 10 10 10 10 10 10 10 10 10 10 10 10 10 10 10 10 10 10
4 4 5 5 6 7 8 9 9 9 9 8 8 8 7 7 7 6 6 6 6 6 6 6 6 6 6 6 6 6 6 7 7 7 8 8 8 9 9 9 9 9 9 9 9 9 10 10 10 10 10 10 10 10 11 11 12 12 12 12 12 11 11 11 11 10 10 10 10 10 10 10 10 10 10 10 10 10 10 10 10 10 10 10 10
2 2 3 3 4 6 6 7 8 9 10 9 9 8 8 7 7 7 6 6 6 6 6 6 6 6 6 6 6 6 6 7 7 7 7 8 8 8 8 9 9 9 9 9 9 9 9 9 9 9 9 10 10 10 11 11 12 12 11 11 11 11 11 11 11 11 10 10 10 10 10 10 10 10 10 10 10 10 10 10 10 10 10 10 10
Height
716 719 722 724 725 727 729 731 733 736 738 742 745 747 748 749 751 753 755 757 760 763 766 769 772 774 776 778 779 780 782 783 785 786 788 790 792 794 797 799 801 803 805 806 808 809 810 811 812 813 814 816 817 817 817 818 819 819 820 820 821 821 822 823 825 826 827 827 827 828 830 832 833 834 835 836 836 837 838 838 838 838 839 839 838
712 715 718 720 721 722 724 726 729 731 734 738 740 743 745 746 748 750 751 752 755 759 762 765 768 771 773 775 776 778 779 781 782 783 784 787 788 791 793 796 798 800 802 804 805 807 808 809 810 810 811 812 814 814 814 815 816 817 818 819 819 820 821 822 823 824 826 827 827 827 829 830 832 833 834 834 835 836 836 837 837 836 837 837 837
709 712 716 717 718 719 720 722 724 727 730 733 735 738 740 742 744 745 746 748 751 755 758 762 764 767 769 771 773 775 777 778 779 779 781 783 785 787 790 792 795 797 799 801 803 804 805 806 807 808 809 809 810 811 812 813 815 816 816 818 818 819 820 821 822 823 824 825 826 826 827 829 830 832 833 833 834 835 835 836 836 836 836 836 836
705 710 716 719 718 716 716 718 720 723 726 729 731 733 736 738 740 740 741 744 747 751 755 758 761 763 765 767 770 772 773 774 776 777 778 779 781 784 787 789 791 793 796 798 800 801 802 803 804 806 806 807 807 809 811 812 813 814 815 817 817 818 819 820 821 821 822 823 824 825 826 828 829 830 831 832 832 833 834 834 835 835 835 835 834
701 705 714 722 720 715 713 714 716 718 721 724 727 729 731 734 735 736 737 740 743 747 751 754 757 758 760 762 765 768 769 771 772 774 775 776 778 781 783 785 788 790 793 795 796 798 799 800 802 804 804 804 806 808 810 811 812 813 814 815 816 817 818 818 819 819 820 822 823 824 825 826 827 829 830 830 831 831 832 832 833 833 833 833 833
698 701 707 715 716 712 710 710 711 713 716 719 721 724 726 729 731 731 732 735 739 743 746 749 752 754 756 758 761 764 766 767 769 771 772 773 775 778 780 782 785 787 789 792 793 795 796 797 799 802 802 802 804 806 807 809 810 811 812 813 814 815 816 816 817 818 819 820 822 823 824 825 826 828 829 829 829 830 831 831 831 831 831 831 832
693 697 701 705 707 707 707 707 707 709 711 714 716 719 722 725 726 726 728 731 735 738 742 745 747 749 752 755 758 760 762 764 765 768 769 770 772 774 777 779 782 784 786 788 791 792 794 795 797 799 799 800 802 804 805 807 808 809 810 812 812 812 813 815 815 817 818 819 820 822 823 824 825 826 828 828 828 828 829 830 830 830 830 830 830
687 691 695 697 699 700 701 703 704 705 706 708 711 714 717 720 721 722 724 727 730 733 736 740 743 746 749 752 754 757 758 759 761 763 765 767 769 771 773 776 778 781 783 786 788 790 791 793 795 796 797 798 800 802 803 804 806 807 809 809 810 810 811 813 814 816 817 818 819 820 821 823 824 825 826 826 827 827 828 829 829 829 829 829 829
682 686 689 691 692 694 696 698 700 702 703 704 707 710 712 715 717 718 720 722 725 729 732 735 739 742 745 748 750 753 754 755 756 758 760 763 765 768 770 772 774 777 780 782 785 787 789 791 793 794 795 797 799 800 802 803 804 805 807 807 808 808 810 812 813 815 816 817 818 819 820 822 823 824 825 825 826 827 827 827 828 828 828 828 828
678 681 683 685 687 689 691 692 695 698 700 701 703 705 707 710 712 714 716 718 721 725 728 731 735 738 741 743 746 747 749 750 751 753 756 759 762 765 767 769 772 774 776 778 781 784 786 788 790 792 793 795 797 799 800 801 803 804 805 805 806 807 809 811 813 814 815 816 817 818 819 820 821 822 823 824 825 826 826 826 827 827 827 827 827
673 675 677 680 682 684 686 688 690 693 695 698 699 701 703 705 707 709 711 713 717 720 724 727 730 733 736 738 741 742 744 745 747 749 753 756 759 762 764 766 769 771 773 774 777 780 784 786 788 790 791 793 795 797 798 799 801 802 804 804 806 807 809 811 812 813 814 815 816 817 817 818 819 820 821 822 823 824 824 825 826 826 826 826 826
667 669 671 674 676 678 681 683 685 687 690 693 695 696 698 700 702 704 706 708 711 715 718 721 725 728 731 734 736 738 739 741 743 746 749 752 756 758 761 763 766 769 770 771 773 777 781 783 785 787 788 790 792 794 795 797 799 800 802 803 805 807 808 810 811 812 813 813 814 815 816 817 818 819 820 821 822 822 823 824 825 825 825 825 824
662 663 665 668 670 673 675 677 679 682 685 688 690 692 693 695 696 698 700 703 706 709 713 716 720 723 727 729 731 733 735 737 739 742 745 748 752 755 757 760 763 766 767 767 770 774 778 780 782 783 785 787 790 791 793 795 797 799 800 802 804 806 807 808 810 811 812 812 813 814 814 815 816 817 818 819 820 821 822 823 824 824 823 823 823
658 658 660 662 664 667 670 672 674 677 681 684 686 687 688 689 691 693 695 698 701 704 708 711 714 718 721 723 726 729 731 733 735 738 741 744 747 751 754 758 761 763 764 764 766 770 774 777 778 780 782 784 787 789 791 793 795 797 799 801 802 804 806 807 808 810 811 812 812 812 813 814 815 815 816 817 819 820 821 822 822 822 822 822 822
655 655 656 657 659 662 663 666 670 674 679 682 681 681 683 684 685 687 690 692 695 698 701 705 708 712 715 718 722 724 726 728 731 734 737 740 744 747 752 756 759 761 761 761 763 766 770 773 775 777 779 781 784 786 788 791 793 795 797 799 801 803 805 806 807 808 810 810 811 811 812 813 813 814 815 816 818 819 820 820 821 821 821 821 821
653 653 652 652 654 656 658 661 665 669 674 678 677 676 676 678 679 681 684 687 689 693 696 700 703 707 710 713 717 719 721 723 726 729 733 737 741 745 750 753 756 757 758 759 761 763 766 770 772 774 776 778 781 784 786 789 791 794 796 798 799 801 802 804 805 807 808 809 809 811 811 812 812 813 815 816 817 818 819 819 820 820 821 820 820
650 649 649 648 648 650 653 656 659 663 669 673 673 671 670 671 673 675 678 681 684 688 691 694 697 701 704 708 711 714 715 718 722 726 730 734 738 743 747 750 752 753 755 757 759 760 763 766 768 771 773 776 779 782 784 787 789 792 794 795 797 798 799 801 804 805 806 807 808 810 811 811 812 813 814 815 816 817 818 818 819 820 819 819 818
647 646 646 646 646 646 648 651 654 659 664 670 671 666 664 665 666 668 671 674 677 681 684 688 691 695 699 703 706 709 710 713 718 722 726 730 735 740 744 746 748 750 751 754 756 757 760 763 765 768 771 773 777 780 782 785 787 789 791 793 794 796 797 799 802 804 805 806 807 808 809 810 811 812 813 814 815 816 816 817 818 818 818 818 818
644 643 643 644 644 644 645 646 649 653 658 666 668 663 658 659 660 662 665 668 671 675 679 683 687 690 694 698 702 704 706 709 714 718 722 727 731 736 740 742 743 745 747 749 753 755 757 760 763 766 768 771 774 777 779 782 784 786 788 789 791 793 794 797 799 801 802 803 805 806 808 809 810 811 812 813 814 814 815 815 816 817 817 817 817
640 639 639 639 640 642 644 645 645 646 649 656 661 658 653 652 654 656 660 664 668 672 676 679 682 685 689 693 697 700 701 705 710 714 718 723 727 732 735 737 738 740 742 745 749 753 755 758 761 764 766 768 771 774 776 778 780 782 784 786 788 789 791 794 796 798 800 801 803 804 806 807 808 809 810 811 812 813 813 813 814 815 815 816 816
638 637 637 635 635 638 641 643 644 645 646 650 652 650 646 646 648 650 655 660 663 667 671 675 678 682 685 689 693 695 697 700 705 710 715 719 723 727 730 731 733 735 738 742 746 749 751 754 757 761 763 765 768 770 773 776 778 779 781 784 786 787 790 792 794 796 798 799 801 803 804 805 806 807 808 809 809 810 811 811 812 813 814 814 814
636 636 636 635 634 632 632 635 639 641 643 647 651 650 646 643 644 646 650 654 658 662 666 670 674 678 681 685 689 691 693 696 700 705 710 715 718 722 725 727 729 731 734 738 742 745 747 749 752 756 759 761 764 767 770 773 775 777 779 782 784 787 789 790 792 795 796 798 799 801 802 803 804 805 806 806 807 808 809 809 810 811 811 812 812
632 632 633 635 637 635 632 633 635 636 636 639 647 652 649 643 642 644 647 650 654 657 662 666 670 674 678 681 685 687 689 693 696 701 706 711 715 719 722 724 725 726 729 733 736 740 743 744 747 752 755 758 761 765 768 771 774 775 778 780 783 785 787 789 791 793 795 796 797 798 799 800 801 803 803 804 805 805 806 807 807 808 809 809 810
630 629 628 630 635 637 636 636 638 638 635 633 638 647 647 640 638 641 643 645 649 652 657 661 665 669 673 677 681 684 685 688 692 697 702 707 711 716 719 721 721 723 726 729 733 737 739 740 743 747 752 755 759 762 766 769 772 774 776 779 782 784 785 787 789 791 793 794 795 796 797 798 799 800 801 801 802 803 803 804 804 805 806 806 807
627 626 624 625 628 632 632 632 635 638 635 629 630 639 642 636 633 636 639 641 644 648 652 656 660 664 668 672 676 679 682 684 688 693 698 703 708 713 716 717 718 721 724 727 730 733 735 737 741 745 749 753 757 761 765 767 769 772 774 777 779 782 784 786 788 789 790 792 793 794 795 796 797 798 799 799 800 801 801 802 803 803 804 805 806
626 624 621 621 624 626 624 623 626 630 630 626 626 630 632 630 628 631 634 637 640 643 647 651 655 660 664 668 672 675 678 681 684 689 695 700 704 709 713 715 717 719 722 725 728 730 734 737 740 744 748 752 755 759 762 765 768 770 773 775 777 780 781 783 785 787 788 789 791 792 793 794 795 796 797 798 799 799 800 801 802 803 804 804 805
626 623 620 619 621 623 622 620 619 622 625 627 626 626 624 623 624 627 630 633 636 639 643 647 651 655 660 664 668 671 675 678 681 685 690 695 700 705 709 712 715 717 719 723 726 729 732 737 740 743 746 750 754 757 760 763 765 768 770 773 775 777 779 781 783 785 786 788 789 790 791 792 793 794 795 796 797 798 799 800 801 801 802 803 803
626 622 620 619 619 620 621 621 621 622 624 627 628 626 622 619 620 623 626 628 631 635 638 641 645 650 654 659 663 667 671 673 674 678 683 689 695 701 705 708 710 713 716 720 724 728 731 735 739 743 746 750 753 756 759 761 763 765 768 770 772 775 777 780 781 783 785 786 787 788 789 790 791 792 793 793 794 796 797 798 799 800 801 801 801
627 623 619 617 616 618 620 621 622 623 625 628 629 627 623 619 617 619 623 626 629 632 634 637 640 645 650 654 657 661 665 667 670 675 681 686 692 696 699 702 706 709 712 716 721 725 730 734 737 740 743 746 750 753 756 758 760 763 765 768 770 772 774 777 779 780 782 783 784 785 786 787 788 789 791 792 792 793 794 796 797 797 798 799 799
626 622 618 614 613 614 616 617 618 620 623 626 628 628 626 624 621 621 622 626 629 632 635 638 641 644 648 652 654 657 660 664 670 677 682 686 689 693 696 699 702 706 710 714 718 722 727 732 736 739 741 743 745 748 751 754 757 760 762 765 767 769 771 774 776 778 779 780 782 783 784 785 786 787 788 790 790 791 792 793 794 795 795 796 796
624 621 618 615 614 613 612 612 613 615 619 624 628 629 629 628 625 623 623 625 629 632 635 639 642 645 648 651 654 657 660 664 670 676 679 682 686 690 695 698 700 702 706 710 715 720 724 729 733 736 738 740 740 743 747 750 753 756 759 761 764 766 768 771 773 775 777 778 779 780 781 783 784 785 786 787 788 789 790 791 792 792 793 794 794
622 620 618 617 616 614 610 608 607 609 612 618 623 626 627 626 624 622 622 624 627 630 634 639 642 644 647 649 652 656 660 664 668 672 675 678 681 686 691 695 698 700 703 706 711 715 720 724 727 731 734 737 737 739 742 746 749 753 755 758 760 763 765 768 770 773 774 775 777 778 779 781 782 783 784 785 786 787 788 788 789 790 790 791 792
621 619 618 617 616 614 611 608 606 606 609 613 618 621 623 624 623 621 621 624 627 629 633 637 640 643 645 647 649 652 656 660 664 667 671 675 678 683 689 693 696 699 701 704 707 711 716 721 724 727 731 734 735 736 739 742 746 749 752 754 757 759 762 765 768 770 771 772 774 775 776 778 780 781 782 783 784 785 786 786 787 787 788 789 790
620 618 617 617 616 614 611 610 609 608 610 613 617 619 621 623 623 620 619 623 628 631 632 634 637 640 643 645 647 650 653 657 661 664 668 672 676 681 687 693 697 699 701 703 705 708 712 715 718 722 727 731 733 734 736 739 742 746 749 751 754 756 759 762 764 766 768 769 770 772 773 776 777 778 780 781 782 783 783 784 785 786 787 787 788
619 617 616 617 617 615 613 612 610 609 610 612 616 619 619 620 620 620 620 622 625 628 631 632 634 637 640 642 645 648 652 655 659 662 665 669 674 680 686 691 694 697 699 702 705 707 708 709 711 716 722 726 728 730 733 736 739 742 744 747 750 753 755 758 760 762 764 766 767 768 770 772 774 776 778 779 780 781 781 782 783 784 785 786 787
618 615 615 617 618 617 615 614 612 611 610 611 614 618 619 619 619 619 621 622 623 625 628 630 632 636 639 641 644 647 650 653 656 659 663 666 671 676 681 684 687 691 695 698 701 704 707 709 710 714 718 721 723 727 730 732 735 738 741 744 747 749 751 753 756 759 761 763 765 766 768 769 771 774 775 777 778 779 780 781 782 783 784 785 786
620 618 617 619 620 619 616 614 614 612 611 611 614 616 618 619 619 618 619 622 624 626 629 630 632 634 638 641 643 645 648 651 654 657 661 664 667 671 674 678 683 687 691 693 696 700 704 708 710 713 715 717 720 724 727 729 732 735 738 741 743 745 747 750 752 755 758 759 762 764 765 767 769 771 773 774 776 777 778 779 780 782 783 783 784
625 623 623 623 622 620 617 615 615 615 615 615 615 615 616 617 619 619 620 621 622 625 629 632 632 633 636 640 643 645 647 650 654 657 661 663 666 669 672 676 679 683 685 689 693 696 700 704 708 711 714 716 720 723 725 727 730 733 735 738 740 742 745 747 750 752 754 756 758 760 762 764 766 769 770 772 774 775 776 777 779 780 781 781 782
628 627 627 626 624 622 619 617 616 617 617 617 617 617 616 616 618 620 623 624 624 624 627 629 631 633 635 639 643 645 646 649 651 655 659 662 665 668 671 674 677 680 683 687 692 695 698 702 706 709 712 715 719 722 723 725 727 730 733 735 737 740 742 745 747 749 751 753 755 757 758 760 763 766 768 770 771 773 774 775 777 778 778 779 780
632 631 630 628 626 624 622 619 617 616 615 616 616 617 616 616 617 620 623 626 628 629 629 629 631 633 635 637 640 642 644 647 649 651 654 658 662 665 668 671 674 677 681 685 689 692 696 699 702 705 708 711 715 719 720 721 724 727 729 732 735 737 740 742 745 747 749 750 752 754 755 757 760 763 765 767 769 770 772 773 775 775 776 777 778
635 633 632 630 628 626 623 621 619 617 616 616 616 616 617 618 620 622 624 627 629 631 631 632 632 633 635 636 638 640 642 644 647 649 652 654 657 660 662 666 669 673 677 681 684 688 691 695 699 701 704 707 711 715 718 719 721 724 727 729 732 735 737 739 742 744 747 748 750 752 753 755 757 760 762 764 766 768 769 771 772 773 774 775 776
637 636 633 630 628 627 625 623 622 620 619 619 619 620 621 622 623 625 627 628 629 630 631 632 633 634 635 636 638 640 641 643 644 647 650 653 655 656 658 661 666 669 673 676 679 682 686 690 694 698 701 703 708 712 716 717 719 722 725 727 729 732 734 736 739 742 744 747 748 750 752 753 755 758 760 762 764 766 767 768 769 770 772 773 774
639 637 635 632 631 629 627 626 625 624 623 623 623 623 624 624 626 627 628 630 630 631 631 632 632 633 635 637 639 641 642 643 645 647 649 652 654 656 658 661 665 668 671 675 678 682 686 689 692 696 699 702 706 711 714 716 717 720 723 725 727 729 731 734 736 739 741 744 746 748 750 751 753 756 758 760 762 763 764 765 766 767 769 771 772
640 638 636 634 633 632 631 629 628 627 627 626 626 626 626 626 627 628 629 630 631 631 631 632 633 634 636 638 640 642 643 643 645 647 649 651 654 657 659 662 665 668 671 674 678 683 687 689 692 696 699 703 706 710 713 715 716 718 720 723 725 727 729 732 733 736 738 741 743 745 748 750 752 754 756 758 759 760 761 762 763 765 766 768 769
642 640 638 636 635 634 633 632 631 631 630 630 629 629 629 629 629 630 630 631 631 631 632 633 634 635 637 638 640 642 643 644 645 648 650 652 654 657 659 661 664 668 671 674 677 682 685 689 692 695 698 701 705 708 711 712 714 716 719 722 725 726 728 730 732 734 736 739 741 743 745 747 749 752 754 755 756 757 758 759 761 762 764 765 767
646 643 642 640 638 637 636 635 634 633 633 633 633 632 632 632 632 632 632 632 632 632 633 634 635 636 638 640 642 643 644 645 647 649 651 654 656 658 659 661 664 668 671 675 678 681 685 688 692 694 697 701 704 708 709 711 713 716 719 721 724 725 726 728 730 732 734 737 739 741 743 745 747 749 751 753 754 755 756 757 759 760 762 763 764
649 647 645 643 642 640 639 638 637 636 635 635 635 635 635 635 634 634 634 634 634 634 635 635 637 638 639 640 642 643 645 647 650 651 654 656 658 660 661 662 664 667 671 676 679 682 685 688 691 694 697 700 703 706 708 711 714 717 719 720 721 723 725 727 729 731 733 735 737 739 741 743 745 747 749 750 752 753 754 755 757 758 760 761 762
652 650 648 646 645 644 643 641 640 639 638 638 638 638 638 638 638 637 637 637 637 637 638 638 640 641 641 642 643 645 647 650 653 655 657 658 660 662 663 664 665 668 672 675 679 683 686 688 691 693 696 699 702 705 708 710 713 716 718 718 719 721 723 726 728 730 732 733 735 738 740 742 743 745 746 748 750 751 752 753 755 756 758 759 760
654 653 651 649 648 646 645 644 644 643 642 642 642 642 641 642 642 641 641 640 640 641 641 642 643 643 644 645 646 648 650 652 654 656 658 659 661 663 665 666 668 672 674 677 681 683 686 689 691 694 697 700 703 706 708 710 712 714 715 717 718 720 723 725 727 729 731 732 734 736 738 740 741 743 745 746 748 749 750 752 753 754 756 757 758
658 656 655 653 651 650 648 647 647 646 646 646 646 646 645 646 646 645 644 644 644 645 645 646 646 647 648 649 650 652 653 654 655 657 658 660 662 665 667 668 670 673 677 679 682 684 686 689 691 694 697 701 704 706 708 710 711 712 714 716 718 720 722 724 726 727 729 731 732 734 736 738 740 742 743 744 746 747 748 750 751 753 754 754 755
662 660 659 657 655 653 652 650 650 650 650 649 649 649 649 649 649 649 648 648 648 648 649 650 649 649 651 652 654 656 657 658 658 659 660 663 665 667 668 670 672 675 678 681 683 685 687 690 693 695 698 700 703 705 707 708 710 712 714 716 718 720 722 724 725 726 728 730 731 733 735 737 739 741 742 743 744 745 747 748 750 751 752 752 753
Wind_Speed
35 35 35 35 36 36 36 36 36 36 35 35 35 34 34 35 36 35 34 34 33 32 32 32 31 31 31 31 30 30 30 30 29 30 28 27 27 27 24 22 22 21 19 20 20 20 20 22 24 23 22 24 23 20 20 18 17 16 14 11 11 11 9 6 5 3 5 11 13 13 18 18 14 11 11 14 15 13 11 9 11 14 13 13 15
32 33 35 36 36 37 37 37 37 37 36 35 35 35 34 35 37 36 34 34 34 33 32 32 32 32 32 32 30 30 30 30 30 31 30 28 27 27 26 24 23 22 21 21 21 21 21 21 22 22 22 23 21 16 15 14 14 14 14 13 12 13 13 10 8 6 8 11 11 15 18 16 13 11 12 14 13 10 8 7 10 14 13 11 13
29 29 30 34 36 37 37 38 37 37 37 36 36 36 35 35 37 37 35 34 34 34 33 32 33 33 33 33 32 31 31 31 31 31 31 30 29 28 27 26 25 24 22 22 22 22 22 21 22 21 19 19 20 17 14 15 15 15 16 16 15 14 14 14 12 11 13 13 12 14 15 13 11 11 12 13 11 9 9 9 12 14 12 10 12
31 28 26 29 34 36 37 37 38 38 38 37 37 38 37 36 36 37 36 34 34 35 34 33 33 33 34 35 33 32 32 31 31 31 31 30 30 29 28 27 26 25 24 24 23 22 22 22 22 22 20 19 19 18 17 17 18 17 17 17 17 14 13 14 15 13 15 16 12 12 14 12 10 11 12 13 13 12 11 10 10 12 11 11 12
35 33 30 31 33 35 36 37 38 39 39 39 39 39 38 36 36 37 36 35 35 35 35 34 34 34 35 35 34 33 33 32 31 31 31 31 31 29 28 27 26 26 26 25 23 22 21 22 22 22 22 21 21 20 19 18 18 18 17 17 17 15 13 13 14 13 15 17 14 12 14 14 11 9 10 12 13 14 13 12 11 11 11 11 11
37 38 38 37 36 35 36 37 38 40 40 40 40 40 39 37 37 36 36 35 35 35 35 34 34 35 34 34 34 33 32 32 31 32 31 31 31 29 29 29 27 25 26 24 23 22 21 21 22 22 23 23 23 22 21 19 19 18 18 17 16 16 15 13 13 14 14 15 15 13 13 14 11 10 11 10 11 12 11 11 12 12 11 12 12
37 40 41 39 36 35 36 38 39 40 41 41 41 40 39 38 37 37 36 36 36 36 35 34 34 35 34 33 34 34 33 33 32 32 33 31 32 31 29 30 29 25 25 24 23 22 21 22 22 23 23 23 23 23 22 21 20 19 18 18 16 17 18 15 13 14 13 12 14 14 13 12 11 11 10 9 9 9 8 8 9 10 10 11 11
36 39 40 37 35 36 37 38 39 40 42 42 40 39 39 38 38 37 36 36 37 38 37 34 33 34 34 34 37 36 34 35 34 34 34 33 32 32 30 30 29 27 25 24 23 22 22 22 23 23 23 23 23 23 23 23 22 20 19 19 17 19 20 17 14 14 14 13 13 14 13 12 12 11 9 8 9 7 9 10 8 7 7 8 8
36 36 37 36 36 36 36 37 38 39 40 40 39 38 38 38 38 37 37 37 38 38 36 35 33 33 34 35 37 36 34 36 36 35 35 35 33 32 32 31 30 28 27 25 23 21 21 22 23 23 23 23 23 23 23 24 24 22 21 20 19 19 20 18 16 15 15 14 13 14 14 13 14 14 10 9 8 7 8 9 7 6 7 9 10
35 34 35 36 36 35 34 35 36 37 37 37 38 37 38 38 38 37 37 38 39 38 36 35 34 34 35 35 36 36 36 36 38 38 37 36 33 32 32 31 30 29 27 25 23 21 22 23 22 22 22 22 22 22 22 23 23 22 22 21 20 19 19 18 17 16 16 15 13 13 14 14 15 15 14 11 10 8 5 5 5 7 7 9 9
34 35 35 35 35 34 33 34 35 36 36 36 37 38 37 37 38 38 38 37 37 38 37 36 36 36 36 35 35 36 37 37 38 40 40 37 35 33 32 32 31 30 28 26 24 22 22 22 22 22 22 23 23 23 23 24 23 22 22 22 20 19 19 17 17 17 15 14 14 14 14 14 14 14 15 13 12 10 6 4 5 6 6 8 9
32 34 35 35 35 33 32 33 33 34 36 36 37 38 38 37 37 38 38 37 37 38 38 38 37 36 35 35 36 36 36 36 38 40 41 40 38 35 33 32 31 31 30 27 24 23 23 22 22 22 24 25 25 25 25 25 24 22 22 22 20 19 19 17 17 17 15 14 15 15 14 12 12 14 14 12 11 9 8 8 7 7 9 9 8
29 32 33 35 35 34 34 33 32 32 35 37 38 38 38 38 38 38 38 39 38 38 39 39 37 36 35 36 37 37 36 36 38 41 42 42 41 37 33 32 33 31 29 28 25 24 24 23 22 23 25 26 27 27 27 26 25 22 21 21 20 20 20 17 15 15 14 13 12 12 12 11 10 13 14 11 10 9 7 7 7 7 8 6 7
26 28 32 34 35 37 37 36 34 32 33 37 38 38 38 38 38 39 39 38 37 37 38 39 38 37 36 36 36 36 36 36 38 41 43 43 42 39 34 32 33 32 29 28 27 25 25 25 23 24 26 28 28 29 29 28 26 23 22 21 21 20 19 16 15 13 13 12 10 8 10 11 8 9 13 13 11 10 6 5 6 6 6 6 8
26 25 29 33 34 37 39 38 35 34 34 36 38 38 38 38 39 38 38 38 39 40 40 40 40 38 36 37 36 35 36 38 39 41 44 45 44 40 34 32 33 31 29 29 29 28 27 27 25 25 27 28 30 30 30 29 28 24 22 21 20 20 18 16 16 16 13 13 12 9 9 11 9 8 12 13 11 10 8 7 7 6 7 8 11
28 26 27 32 35 36 38 37 36 36 36 36 38 39 38 39 39 38 38 38 39 39 39 39 39 38 36 37 36 35 36 39 40 42 44 46 46 41 34 31 32 30 28 29 29 28 28 28 26 26 27 28 30 30 29 29 28 25 23 21 19 20 19 16 16 19 17 15 15 12 10 12 11 9 10 11 10 10 9 7 6 6 9 11 12
27 28 26 30 35 36 35 34 35 37 36 34 36 38 39 39 40 39 38 37 37 38 39 39 40 39 37 36 36 36 35 37 41 43 45 47 47 40 33 31 32 30 28 29 28 28 28 29 28 27 27 28 29 30 28 27 27 25 23 22 20 20 20 19 17 18 18 17 17 15 11 12 13 11 11 11 11 10 9 7 6 6 8 9 9
26 28 26 26 33 37 35 32 31 33 34 36 38 38 38 38 39 40 39 38 38 40 40 40 40 39 38 37 37 36 34 36 41 44 46 49 48 41 34 32 31 30 28 28 28 27 28 29 29 27 27 28 29 29 28 26 26 26 24 24 23 20 20 21 20 19 19 19 18 17 15 14 13 13 13 13 13 12 11 10 8 7 7 8 8
26 28 28 26 27 31 33 33 34 33 33 36 40 39 40 39 39 40 40 38 38 39 40 38 37 38 38 38 38 36 34 36 41 45 47 50 50 42 35 33 32 31 29 28 27 26 27 28 29 27 26 27 28 29 30 27 26 26 26 25 25 22 20 22 22 22 22 22 21 20 19 17 15 15 15 15 15 15 14 13 11 10 8 9 10
26 29 29 26 23 22 22 26 34 39 41 44 45 41 40 40 39 39 39 37 35 35 37 37 36 37 37 37 37 37 36 36 41 45 48 52 52 45 37 35 33 31 29 29 27 26 26 28 30 28 25 26 28 30 32 30 27 27 27 27 27 25 22 21 22 23 23 24 23 21 20 19 18 17 17 18 18 18 17 15 14 13 11 10 10
24 24 25 28 30 29 30 30 29 32 38 41 41 40 39 40 39 39 37 36 34 33 35 36 35 35 36 36 36 36 36 38 42 45 48 53 55 48 40 36 35 32 29 29 29 28 27 29 31 30 26 27 29 31 32 31 27 26 27 27 26 24 21 21 21 20 19 21 22 21 19 18 18 18 19 19 20 19 17 15 15 14 14 13 12
23 22 19 22 30 36 40 41 33 30 31 30 28 30 33 36 37 37 36 35 34 33 34 35 33 33 33 34 35 34 35 37 41 45 49 55 56 51 42 37 36 34 31 30 30 29 28 30 33 34 31 29 30 31 32 32 27 24 24 24 22 21 22 21 20 18 16 16 18 18 17 16 16 17 18 18 18 17 14 13 13 13 13 13 12
24 26 20 16 20 27 33 34 31 31 36 35 30 32 32 32 33 34 35 34 33 32 32 33 32 30 31 32 33 33 33 35 38 43 50 55 57 53 44 38 38 38 35 33 32 31 30 31 34 37 35 32 31 31 31 32 29 22 21 22 21 21 23 21 19 19 17 15 16 18 17 17 16 17 18 18 17 16 15 14 14 13 13 12 12
23 27 26 21 20 21 24 29 32 36 40 40 37 35 34 33 33 33 34 33 31 29 30 31 30 28 28 29 30 31 33 35 36 41 48 54 57 53 44 40 41 39 36 34 33 31 31 33 35 38 37 33 32 30 30 32 31 24 22 23 21 21 24 22 19 21 20 17 18 19 18 18 18 19 20 19 17 17 18 17 16 15 14 14 12
19 23 26 26 24 23 24 27 29 32 37 38 37 35 34 32 31 32 33 31 29 28 28 30 29 27 27 27 28 29 32 35 37 40 45 52 57 53 44 40 42 41 36 33 33 32 33 33 34 36 37 34 31 30 29 31 32 27 24 24 22 21 24 22 19 19 21 20 19 18 18 18 18 18 18 17 16 17 18 18 17 16 15 13 12
14 17 19 21 23 23 23 21 19 23 28 31 35 37 36 33 31 32 31 29 29 29 28 28 28 26 25 25 26 28 30 34 38 41 44 51 56 52 43 39 41 40 36 33 33 33 32 31 32 35 36 34 32 31 30 31 33 29 24 23 23 22 24 24 19 17 19 19 17 18 18 17 17 17 16 14 14 14 14 14 14 13 12 12 13
12 14 14 15 17 17 17 17 17 21 26 26 29 32 35 33 31 30 29 28 28 28 27 27 26 25 24 25 26 27 29 32 38 42 45 51 54 49 42 39 39 38 34 32 32 33 31 29 31 33 35 33 31 31 30 31 33 31 26 24 23 22 24 25 20 16 17 18 17 17 16 16 16 16 16 16 15 13 12 11 11 11 11 12 15
12 12 11 10 11 10 11 12 13 17 22 25 27 28 30 33 32 31 32 32 31 29 28 28 28 28 27 25 25 26 27 31 38 44 48 50 50 46 41 39 39 37 35 33 32 32 31 31 31 33 34 33 31 30 30 32 33 31 28 26 24 22 22 22 21 19 18 17 16 16 16 16 17 15 15 16 16 16 15 13 13 13 11 12 15
14 12 10 10 10 8 5 7 11 14 19 22 23 24 26 30 33 33 34 35 35 34 31 30 32 33 31 29 28 26 25 29 37 43 46 49 51 49 44 42 40 37 37 38 36 34 34 34 34 34 34 33 31 29 29 30 31 30 29 27 26 24 22 22 22 22 19 17 16 16 16 16 15 14 14 14 15 16 16 16 16 15 15 16 16
14 13 13 13 13 9 5 5 8 12 16 19 19 20 22 24 27 30 32 33 34 35 33 30 31 32 30 30 30 28 26 29 34 37 39 45 52 53 48 44 42 39 39 40 38 36 34 33 32 32 32 31 31 29 29 30 30 29 29 28 27 26 24 23 22 21 20 19 17 16 15 14 13 14 15 16 15 15 14 15 16 16 16 15 13
13 12 12 12 11 9 8 6 4 7 11 15 15 16 19 21 23 26 30 32 33 33 33 31 32 32 29 28 28 27 27 30 33 35 38 42 49 53 50 45 43 43 43 42 39 36 35 33 30 31 31 30 31 31 29 30 30 29 28 28 27 26 26 25 23 21 21 21 19 17 15 15 15 16 16 15 15 15 14 15 16 17 17 14 12
13 13 12 9 7 7 9 9 5 4 8 13 18 20 19 16 15 17 23 29 32 32 32 32 33 34 32 29 29 28 28 30 33 36 39 43 48 53 53 47 43 44 45 43 39 37 37 34 31 30 30 29 30 32 30 29 30 29 27 27 27 26 27 27 25 23 22 22 23 21 18 17 17 17 16 14 13 13 14 14 15 16 17 15 13
11 12 11 9 8 9 11 10 8 6 8 13 19 22 21 14 9 10 15 21 26 30 35 36 36 35 32 30 31 32 33 34 36 37 39 42 45 51 52 46 42 43 45 42 38 35 34 32 30 30 30 29 29 31 30 29 29 28 26 27 28 28 27 27 26 25 24 23 24 24 22 20 18 16 15 15 14 14 13 11 9 8 9 9 8
12 11 12 12 11 13 11 8 7 8 11 12 13 15 20 20 16 13 15 15 16 20 28 35 38 38 34 30 32 35 35 34 34 35 38 39 43 49 49 42 39 41 41 38 36 35 34 34 33 32 31 29 29 30 30 28 28 27 26 26 28 29 28 27 26 26 26 25 25 25 25 24 22 19 17 15 15 15 12 10 8 7 6 5 7
14 14 15 15 13 11 8 5 3 5 11 14 12 11 13 16 15 13 14 15 17 18 21 27 33 36 33 29 29 32 33 31 30 31 34 37 41 46 45 38 36 38 34 30 31 33 33 34 35 34 32 31 30 30 30 29 28 28 27 25 26 28 29 29 29 27 26 25 24 23 25 26 24 22 21 18 14 13 12 10 10 9 8 8 11
15 15 16 16 16 13 10 6 3 2 4 9 11 12 13 13 14 13 10 9 13 17 20 24 27 29 29 28 28 29 30 28 28 29 31 37 43 47 44 37 35 35 33 30 32 32 29 29 31 31 31 30 30 30 31 30 28 28 28 27 26 27 28 30 30 29 26 25 23 21 21 25 24 23 23 21 17 14 13 12 11 11 11 13 15
17 18 17 15 15 14 12 10 6 4 4 6 7 11 14 15 17 17 13 9 10 12 15 20 24 23 23 25 27 28 28 27 27 30 32 37 45 48 45 40 37 35 33 33 35 33 29 28 30 30 28 29 30 30 31 30 28 26 27 28 27 26 27 28 29 29 27 26 26 24 21 22 22 22 22 21 18 17 16 14 13 12 14 16 16
16 18 17 15 14 13 12 12 10 7 2 2 5 7 8 8 8 10 12 15 18 18 18 20 22 20 19 21 23 26 28 27 28 30 33 38 44 44 40 38 38 37 37 36 35 32 31 31 31 29 27 28 30 29 29 30 29 27 27 28 26 26 25 25 27 29 28 26 27 28 26 23 21 20 20 20 18 17 17 16 15 14 15 16 15
16 17 17 16 15 13 13 12 11 10 8 6 5 5 6 8 8 7 7 10 15 18 20 21 19 19 21 23 25 28 31 31 31 32 34 38 41 38 34 35 37 36 36 36 33 29 29 30 28 27 26 28 30 30 29 30 30 29 28 27 25 24 24 23 24 27 28 28 27 28 28 26 23 21 20 20 19 18 17 17 16 16 17 16 13
15 15 16 17 15 13 13 13 13 13 13 12 9 7 6 8 9 10 10 10 9 12 15 17 16 19 25 29 31 32 33 31 29 32 35 37 37 35 33 34 35 34 35 36 33 30 31 32 30 30 30 30 30 30 29 29 30 30 29 27 25 25 25 24 24 23 22 24 27 28 26 24 23 23 22 22 21 20 19 18 18 18 17 16 14
13 12 14 16 15 14 13 14 15 14 14 14 13 11 9 7 7 9 11 13 13 13 14 14 15 18 25 31 33 34 33 30 30 33 35 35 36 36 35 35 36 36 37 38 37 34 34 34 32 31 32 32 30 28 28 29 29 29 28 27 28 28 26 25 25 22 17 17 22 25 24 23 23 24 24 22 21 21 20 20 21 20 17 16 16
14 13 13 14 15 15 14 15 15 14 13 13 12 11 9 7 6 7 9 12 14 14 14 13 13 15 22 29 32 31 29 28 31 33 32 32 33 35 35 35 36 36 38 40 40 39 38 37 33 31 32 33 30 26 28 30 29 28 27 27 28 29 28 25 24 23 18 15 17 20 22 23 23 23 23 21 21 22 22 21 22 22 20 18 18
16 14 15 14 14 14 14 14 14 14 13 13 12 10 9 8 7 6 7 9 10 10 11 11 11 13 19 26 30 26 22 23 27 29 29 29 29 30 30 30 31 33 35 37 37 35 34 32 29 27 30 33 30 25 26 29 29 27 26 23 22 25 26 24 22 22 21 19 18 18 20 22 22 21 21 21 21 22 22 21 20 20 20 20 20
19 16 16 16 15 14 13 12 12 13 13 13 12 11 10 10 9 7 7 7 6 7 8 9 10 12 17 23 26 22 18 20 24 25 25 26 25 24 24 25 27 29 32 32 31 30 30 28 25 25 29 31 27 22 22 25 26 27 26 20 15 18 23 23 22 23 23 21 20 20 21 22 22 20 20 21 22 21 21 21 21 21 20 19 18
19 17 16 15 15 14 13 13 13 13 12 12 12 12 12 10 9 8 8 8 7 7 8 8 9 12 15 19 20 18 16 18 21 22 21 22 23 22 22 23 24 26 28 29 28 29 31 30 26 25 28 30 27 24 23 24 25 27 26 20 14 15 20 21 20 21 21 21 21 21 21 23 24 22 21 21 21 21 21 20 20 20 20 19 18
17 17 16 15 15 14 14 14 14 14 14 13 13 13 12 11 10 9 8 8 8 8 9 9 10 13 15 15 15 14 15 16 18 18 18 19 21 21 22 23 24 24 27 29 28 28 30 31 27 25 27 30 28 24 22 21 20 20 22 21 18 16 17 19 19 19 20 22 23 23 22 22 23 24 24 21 19 19 20 20 19 17 18 19 19
17 16 16 15 15 14 14 15 16 15 15 15 14 14 13 11 10 10 9 8 8 9 10 12 13 14 14 13 12 13 14 14 15 16 16 17 18 19 22 24 25 25 28 30 29 27 28 30 28 25 25 27 26 23 19 16 16 18 20 21 20 18 17 18 19 20 19 20 22 24 23 21 21 22 24 23 20 17 17 19 20 19 18 19 20
21 19 18 17 16 14 12 13 14 15 15 14 14 14 14 12 11 10 10 9 8 9 11 12 13 13 13 13 15 16 17 16 16 17 17 17 18 19 22 25 26 26 28 30 29 27 27 28 26 23 21 21 22 22 20 18 17 20 21 19 18 18 17 17 19 20 20 20 20 21 21 21 20 21 22 23 23 20 18 17 19 21 21 20 20
25 24 22 20 19 16 14 11 11 12 14 14 13 13 13 13 12 11 10 10 10 10 12 13 13 13 14 16 18 20 20 21 21 22 22 21 21 21 23 24 25 25 25 26 27 26 26 25 22 20 20 19 19 20 21 20 20 20 20 18 17 17 17 17 17 18 18 19 19 19 19 19 19 19 20 20 21 21 20 18 18 19 21 22 21
26 25 24 23 23 21 20 17 14 12 11 12 13 13 13 12 12 11 11 12 11 11 12 13 14 15 16 16 18 19 20 21 22 22 22 22 22 22 23 24 23 22 21 22 22 22 22 22 22 22 22 21 21 21 22 22 21 20 19 18 17 16 16 17 16 16 17 18 18 18 18 18 16 16 18 18 18 18 19 18 17 16 17 19 20
26 26 25 25 24 24 24 24 21 17 14 13 13 13 12 13 13 13 13 13 13 12 12 13 15 17 16 16 16 17 18 18 19 20 20 20 21 23 23 24 24 23 22 22 22 22 20 20 22 24 24 23 23 23 23 22 22 20 19 18 17 16 16 17 16 15 17 18 16 14 15 17 16 14 15 15 15 14 16 17 17 16 15 15 16
Wind_Direction
202 204 207 208 205 202 201 201 201 200 200 201 202 203 201 199 199 198 196 196 197 198 200 202 206 207 207 208 206 203 202 202 199 197 195 194 195 194 195 198 201 204 207 211 217 220 219 217 213 214 217 221 226 226 219 217 219 221 220 225 234 232 237 235 195 111 102 155 158 153 165 174 179 189 206 211 217 227 236 258 260 243 246 263 272
203 205 207 208 206 203 201 201 202 201 201 202 201 202 203 202 200 197 195 196 197 197 199 202 205 207 206 207 208 205 204 203 200 196 193 192 192 192 195 199 202 205 207 210 216 220 223 224 220 218 218 220 226 229 219 218 223 224 221 219 223 226 224 216 203 176 146 156 159 157 168 182 192 200 209 211 213 221 234 256 248 240 247 258 264
206 209 212 210 206 204 201 201 202 202 201 202 202 202 204 203 200 196 195 195 196 197 199 204 207 206 204 205 208 207 205 204 201 196 193 192 191 191 195 200 202 205 208 210 214 217 220 227 229 229 228 224 227 231 227 224 223 218 217 217 216 221 216 205 209 199 170 165 171 172 181 199 211 212 211 209 205 210 234 252 248 240 242 250 256
209 213 226 226 211 202 202 201 201 201 201 203 204 203 204 203 200 196 195 194 195 196 200 207 209 206 203 204 207 208 206 204 201 196 193 192 191 192 196 199 201 204 206 208 213 216 217 221 225 229 232 226 220 219 217 217 215 210 211 215 215 217 209 201 210 201 170 167 179 190 198 207 213 212 209 208 212 226 238 242 244 242 241 249 255
207 205 219 235 224 206 201 201 199 200 201 203 205 204 203 203 200 197 195 194 195 197 201 208 210 205 203 204 205 207 206 203 199 197 195 193 192 194 197 200 201 204 206 208 212 215 217 218 219 223 222 214 207 208 210 211 208 205 209 212 210 210 204 197 201 189 169 171 185 198 198 192 197 211 213 210 211 221 231 233 234 237 242 253 254
205 202 206 220 223 210 203 201 199 200 201 203 205 204 203 203 200 196 195 195 195 196 201 208 209 206 205 204 204 207 206 201 199 198 197 195 194 196 198 199 201 203 204 207 212 216 219 218 216 217 214 205 200 203 208 207 202 202 207 207 202 200 194 184 177 172 171 178 186 191 186 177 184 202 214 223 216 212 227 238 234 230 240 252 250
200 201 202 208 213 210 205 203 201 200 201 203 204 203 202 202 199 196 194 194 195 196 200 206 207 205 206 205 206 209 207 202 200 200 198 197 196 197 198 198 200 203 204 208 213 216 219 217 213 214 212 204 201 203 205 203 200 202 203 199 196 193 188 181 175 175 181 186 184 182 178 177 187 200 214 228 221 215 233 252 250 245 249 255 253
198 199 202 205 207 207 206 204 204 203 202 203 203 202 201 201 200 197 194 195 197 197 200 204 204 203 205 206 207 210 207 202 201 200 198 198 197 197 198 196 196 200 203 207 212 213 215 215 211 212 211 206 203 204 204 201 199 200 199 196 195 190 186 186 187 188 194 198 189 180 180 186 196 206 217 208 201 225 245 243 253 268 271 275 276
200 202 203 206 207 206 205 204 205 206 205 204 203 201 200 200 199 197 195 196 198 198 200 202 202 203 206 208 207 208 207 203 201 200 197 196 197 197 197 194 193 196 200 204 208 210 212 212 210 210 211 207 204 205 205 202 199 198 195 195 194 188 186 189 193 193 196 200 192 180 182 191 196 202 208 202 210 247 242 221 236 268 274 278 283
200 203 205 207 208 207 205 204 205 208 207 205 202 200 199 199 199 197 196 197 198 199 200 200 202 204 207 209 207 207 208 206 203 201 197 195 197 197 196 194 193 195 197 198 201 205 209 210 208 209 210 205 202 204 203 200 199 197 196 196 195 188 185 189 195 195 195 197 193 185 188 193 193 197 204 211 224 232 207 195 239 264 272 277 283
200 202 205 208 208 206 205 205 206 208 208 206 203 200 199 197 197 198 198 197 197 198 198 198 202 205 207 208 208 207 208 207 204 202 199 197 196 195 194 193 194 196 195 192 194 200 206 206 205 207 207 201 199 200 199 197 197 197 197 198 197 192 189 191 195 197 197 197 195 197 199 193 191 198 204 209 214 214 209 227 252 264 277 281 284
207 202 204 205 204 204 204 205 208 209 208 207 204 201 199 197 197 197 197 196 195 196 197 198 201 205 207 208 208 209 210 208 204 200 198 197 196 194 193 191 191 195 195 191 191 197 201 202 203 205 204 200 197 197 196 195 195 196 197 198 197 195 195 196 196 198 201 197 196 204 203 190 194 203 199 197 203 205 212 226 235 252 260 264 277
217 204 201 201 201 203 205 208 212 213 208 206 204 201 198 197 196 196 196 196 195 195 196 198 200 204 207 207 208 210 211 210 206 200 196 195 195 193 192 191 191 193 193 188 187 193 197 198 199 200 200 199 198 196 196 195 194 195 193 194 195 194 196 199 198 200 204 201 198 201 196 192 205 205 193 192 198 192 197 220 236 253 259 267 287
232 211 201 200 201 202 205 208 212 217 214 207 203 200 198 196 195 196 195 195 194 195 197 198 199 203 206 207 208 209 211 211 207 201 198 196 195 192 190 191 193 194 193 187 185 190 195 196 195 194 194 197 197 197 197 196 194 194 191 191 193 194 195 198 197 195 199 200 195 187 187 196 205 193 186 191 194 188 192 223 241 259 273 279 280
251 231 208 201 200 202 206 208 208 214 218 212 203 199 197 196 195 195 194 194 194 195 197 198 199 202 205 206 207 208 211 211 207 201 199 197 194 190 189 192 194 194 193 189 187 189 193 195 196 193 192 196 197 197 198 197 196 196 193 191 194 196 200 202 199 196 196 196 194 184 179 187 187 178 183 190 195 197 206 226 244 266 278 276 281
255 248 222 205 201 201 205 206 205 209 217 216 207 200 198 196 194 193 193 194 195 196 197 198 199 201 204 205 205 207 210 211 206 201 199 196 192 190 190 193 193 191 189 188 188 188 191 194 197 194 193 196 197 198 199 199 197 196 194 192 193 198 203 205 202 201 201 201 200 195 184 182 185 190 194 198 204 204 205 220 241 265 271 271 281
252 252 235 213 205 203 204 203 201 205 214 221 213 202 197 195 193 193 193 193 194 195 196 197 198 200 202 203 203 205 209 209 204 200 198 195 191 189 190 190 188 187 186 187 188 188 191 195 195 195 195 196 197 199 199 198 197 195 193 191 193 197 202 205 206 207 207 208 208 206 201 191 192 199 202 203 206 204 203 211 224 256 273 275 284
249 251 246 228 214 210 208 204 202 203 210 222 220 205 196 195 192 191 192 192 194 195 195 196 198 198 201 202 202 204 208 205 199 197 197 195 192 190 190 188 184 183 184 186 188 189 191 195 196 195 195 195 196 197 197 196 194 191 190 190 191 194 199 203 209 214 215 215 215 214 211 204 202 206 209 212 216 221 230 235 233 251 280 288 293
247 249 251 242 225 217 212 206 205 207 210 223 226 210 196 194 193 191 193 193 194 196 195 195 196 197 200 202 202 203 206 202 196 196 198 197 194 191 189 186 183 183 183 182 185 190 192 194 196 196 195 194 195 195 195 194 191 190 191 189 187 190 197 204 211 218 219 218 219 219 217 215 214 216 219 224 228 235 246 246 235 235 255 277 288
249 249 250 246 238 239 238 222 210 207 209 217 222 212 198 194 192 190 192 194 193 195 195 195 196 197 199 200 200 201 204 199 194 197 200 198 195 193 190 188 184 181 179 177 181 188 191 193 194 194 195 194 193 194 196 194 191 190 191 190 190 192 197 205 213 219 222 220 220 221 222 222 223 226 230 234 237 242 247 246 241 235 237 255 272
255 251 249 246 241 242 251 252 235 216 213 217 220 212 199 193 191 188 188 191 191 191 193 195 196 196 197 198 198 199 203 199 193 196 201 199 196 194 193 191 186 179 174 177 182 186 187 189 190 191 194 194 192 194 196 193 191 192 194 197 201 198 193 198 206 212 218 219 217 219 223 225 228 232 237 241 243 244 244 242 243 239 234 239 250
264 261 255 248 243 235 235 242 241 228 223 227 232 226 208 194 190 188 186 188 189 189 191 193 195 195 196 198 197 198 203 202 196 197 202 201 198 196 195 194 189 181 175 178 184 187 186 186 188 190 194 195 192 193 194 192 191 194 197 200 201 195 190 193 196 196 201 206 207 212 217 220 223 228 234 239 242 242 241 237 237 238 238 239 242
267 267 259 246 247 241 235 237 237 230 225 221 224 231 220 198 189 188 186 186 187 186 188 190 192 193 195 197 197 198 202 204 200 200 203 202 199 196 196 195 189 183 179 181 185 186 185 186 188 191 194 194 192 192 193 191 189 189 191 192 192 190 190 190 189 188 189 192 196 201 206 208 212 221 227 230 232 234 239 240 237 234 233 234 237
264 267 262 250 242 236 236 239 235 228 223 213 209 219 216 197 187 187 185 184 184 184 186 187 188 191 193 194 195 196 200 202 201 201 203 203 199 196 196 195 190 185 183 184 185 184 184 187 189 191 192 192 191 191 191 192 192 188 186 188 190 190 188 187 189 191 192 196 200 201 203 206 210 219 225 224 223 227 233 237 239 239 237 239 243
265 268 267 264 253 238 236 242 239 231 223 209 200 207 208 195 186 185 184 182 182 182 184 186 188 190 191 192 192 192 195 197 197 199 204 204 199 195 196 195 191 186 185 186 185 183 187 189 187 188 190 189 188 187 188 192 195 192 186 187 189 189 186 187 190 191 192 199 205 205 207 211 216 223 226 224 222 222 224 228 231 233 235 236 240
265 262 262 267 266 257 251 255 263 264 248 220 201 201 200 191 184 184 184 184 184 185 185 185 187 189 189 189 187 185 186 190 192 196 202 202 197 194 193 193 190 187 186 186 183 183 186 186 183 185 187 187 186 186 187 192 195 194 190 189 189 189 188 190 193 192 193 199 207 210 212 217 221 226 227 226 224 217 213 215 217 218 223 231 242
265 261 257 262 272 275 273 271 275 278 265 237 214 205 198 189 183 183 185 186 187 188 187 185 185 187 187 185 179 174 175 181 186 192 196 196 193 191 190 188 187 186 184 181 181 183 185 184 182 183 185 187 188 188 189 191 193 194 193 191 189 190 192 194 199 202 202 207 212 214 215 218 222 224 222 221 221 218 213 217 222 222 228 239 249
272 269 266 265 268 274 275 265 260 265 259 241 224 213 201 190 186 188 190 190 189 189 189 187 186 187 186 180 171 167 171 178 184 190 194 193 190 189 188 186 183 182 180 178 177 179 178 176 177 178 180 181 182 184 187 190 191 193 193 190 188 189 193 198 204 209 211 213 214 213 215 217 220 224 222 216 215 217 218 223 229 230 235 247 252
275 270 267 263 262 261 245 224 227 244 255 251 242 232 214 197 191 192 195 195 195 193 191 189 188 187 187 183 174 168 171 180 186 191 195 194 191 189 188 186 182 179 179 178 174 170 168 167 169 171 173 175 176 178 183 186 188 191 193 191 189 189 191 197 205 211 214 214 213 214 216 214 213 218 222 220 217 214 212 216 222 225 230 239 245
273 270 262 255 252 248 230 204 200 219 241 257 261 252 234 216 204 198 196 197 198 196 193 191 189 187 186 187 185 181 178 180 184 189 195 197 195 192 190 187 182 177 177 177 171 163 159 161 165 169 172 173 175 177 181 183 185 189 193 195 195 196 198 202 207 211 214 213 213 217 217 210 208 216 222 224 221 215 210 213 219 221 222 228 239
279 272 265 260 254 244 237 232 195 191 224 249 259 250 239 230 218 203 195 193 194 194 193 192 190 187 184 183 185 186 185 184 185 191 197 200 198 194 191 187 183 179 177 172 163 156 158 163 168 174 177 177 177 179 180 182 185 187 191 194 198 201 204 206 208 210 212 212 213 217 215 208 212 223 227 222 216 216 218 219 220 222 224 226 237
274 272 274 276 269 255 246 242 230 196 212 230 237 234 229 222 210 196 190 189 188 190 191 187 185 186 185 182 180 182 188 193 195 197 199 201 199 195 191 187 183 181 177 170 162 160 166 171 172 175 179 181 181 180 180 183 186 188 189 192 196 200 203 205 207 209 211 212 213 215 214 209 213 224 227 219 214 220 226 224 219 218 218 220 231
285 283 294 296 276 265 255 236 216 203 206 220 230 229 220 209 194 175 176 183 186 187 187 186 186 186 185 185 186 187 191 197 200 200 201 201 199 194 190 186 183 180 176 170 166 167 171 172 171 175 181 184 184 182 181 183 185 188 190 193 196 199 201 203 206 209 212 214 214 213 212 211 215 222 222 218 223 231 232 228 221 210 206 215 240
352 343 337 320 286 271 271 254 225 220 226 236 245 231 212 204 196 173 158 163 175 181 184 186 187 185 183 185 190 191 193 196 198 200 201 201 196 191 185 181 179 178 176 174 171 170 172 173 174 177 183 186 186 184 183 184 185 187 190 193 196 200 201 203 205 208 212 215 213 210 209 210 215 219 217 219 227 228 226 227 224 217 217 232 257
359 7 5 345 313 293 296 297 273 233 228 233 243 236 211 197 186 171 161 164 168 173 180 185 187 186 184 184 186 190 193 194 195 198 200 198 192 184 178 173 173 176 177 177 175 175 177 177 177 179 183 187 187 185 184 185 187 188 190 191 194 197 199 202 205 208 212 213 210 206 205 206 210 213 216 223 225 217 214 220 218 216 228 243 252
1 6 14 1 339 331 336 339 344 327 250 238 235 228 213 194 182 181 183 179 172 170 173 179 183 188 189 187 186 188 189 190 191 194 195 193 186 179 175 175 177 178 179 180 180 183 186 183 180 181 184 185 185 186 187 187 187 188 190 193 195 195 194 197 201 205 209 209 207 205 203 199 200 207 215 221 223 217 216 218 213 213 226 237 247
16 7 7 2 350 347 353 2 14 1 296 268 238 215 206 198 193 190 185 171 163 161 162 167 173 178 183 185 187 188 188 189 191 192 192 189 184 180 180 181 181 180 182 183 183 184 186 184 183 185 186 185 185 187 188 188 188 189 191 194 197 195 192 193 197 202 205 206 204 205 203 195 194 203 211 213 215 216 215 211 209 216 228 236 244
18 11 6 2 359 358 0 8 20 31 51 194 197 195 188 182 186 188 180 169 165 165 167 171 170 166 163 169 177 179 178 176 177 178 180 181 180 181 183 184 183 184 186 187 186 185 184 182 183 186 187 185 186 188 187 187 190 192 193 195 197 195 192 193 196 199 203 206 204 203 202 197 195 202 207 208 210 212 209 207 210 222 234 238 239
4 5 4 3 4 6 6 8 14 26 47 80 114 150 159 149 140 143 159 166 167 168 173 174 169 160 158 164 169 169 165 163 163 166 171 175 179 182 184 185 186 188 189 188 187 186 182 181 183 186 186 186 187 189 187 185 186 190 193 196 196 191 190 198 202 199 202 208 206 200 196 196 198 204 208 211 212 210 207 208 215 226 235 237 235
358 359 1 3 4 7 13 18 21 23 31 44 59 80 107 125 133 139 149 160 169 176 177 173 164 162 167 172 172 167 163 162 165 168 171 176 181 184 185 186 188 189 188 188 187 184 182 183 185 186 187 187 186 186 184 180 181 186 191 195 195 191 194 205 209 203 202 206 203 196 191 192 197 203 207 209 210 210 212 217 223 229 233 230 229
0 358 1 6 11 12 15 21 25 27 32 38 43 52 69 97 130 148 159 168 174 181 185 179 172 174 180 181 178 174 171 171 172 174 176 178 181 183 185 187 188 188 187 188 187 184 183 185 186 186 186 185 181 181 181 180 181 185 190 193 195 197 200 205 205 203 201 198 194 192 192 194 196 199 203 205 210 215 221 225 226 228 228 225 227
9 8 7 11 15 16 16 19 23 28 35 40 43 47 57 78 110 139 162 175 180 182 183 180 176 181 188 187 183 179 178 178 176 177 179 181 183 185 186 187 188 188 187 188 189 187 185 184 185 185 183 179 177 180 184 185 187 191 192 192 194 197 197 196 195 198 202 202 195 192 193 194 195 197 201 207 215 221 225 224 221 221 223 227 233
12 15 18 20 21 21 21 20 23 30 37 43 47 52 58 67 84 114 149 170 178 177 174 171 170 175 184 187 185 182 181 181 180 179 181 183 186 187 187 186 188 189 189 189 189 187 184 183 186 188 184 178 177 184 189 189 191 192 190 189 193 195 194 193 193 196 201 205 204 198 194 193 195 199 204 211 219 222 221 217 214 214 218 223 228
16 17 21 25 27 29 31 30 28 31 36 41 45 49 55 64 73 87 112 136 153 160 161 166 169 168 173 180 184 183 181 181 181 181 182 184 184 185 185 184 185 187 188 187 185 183 181 179 182 189 189 186 188 198 202 198 194 191 188 185 187 189 189 190 191 192 194 198 202 202 200 198 199 202 208 215 220 220 217 215 213 214 214 215 221
20 19 20 24 27 32 37 39 39 37 36 40 46 48 49 57 69 80 99 117 130 141 150 160 168 165 164 170 177 180 181 180 180 180 181 181 180 179 179 179 180 182 184 181 178 180 182 180 177 180 186 189 191 194 194 191 189 189 192 197 199 193 189 189 190 192 195 198 201 203 204 204 206 209 212 216 219 220 217 213 212 212 212 213 220
24 25 24 22 24 30 35 38 42 47 45 47 53 55 52 55 63 72 88 108 119 129 139 147 153 155 157 162 171 178 179 176 174 173 173 172 173 173 173 173 175 179 181 179 177 178 182 183 180 176 179 183 185 181 177 180 186 189 195 204 209 206 200 197 197 198 200 201 203 205 205 205 209 213 214 216 219 220 217 214 213 214 214 216 222
23 27 30 29 27 31 37 40 45 52 52 50 53 56 54 57 64 69 79 95 108 119 130 137 141 145 150 155 162 167 166 162 160 160 159 160 165 170 172 172 171 173 178 181 181 178 178 180 179 176 176 181 185 184 182 188 196 196 196 199 200 199 199 200 202 203 204 204 207 209 209 209 212 215 217 219 220 219 215 214 216 220 222 224 228
19 18 24 30 32 36 42 46 53 58 58 57 59 58 56 57 61 67 75 85 93 106 121 128 129 129 131 134 138 141 142 141 144 146 146 145 146 151 156 159 159 160 165 171 174 173 171 171 172 174 176 180 185 186 184 186 191 193 193 192 191 193 199 204 206 208 208 207 208 208 209 211 213 214 215 217 219 220 220 220 220 222 225 228 231
23 20 22 24 25 28 32 39 56 66 66 64 64 62 60 60 61 66 76 85 92 106 119 121 116 113 115 120 126 133 139 143 144 145 144 141 137 138 141 144 146 148 153 158 163 167 169 170 172 175 177 179 182 183 183 183 184 185 186 185 186 191 198 202 205 206 205 205 206 206 205 206 209 210 211 215 219 223 227 228 226 224 225 228 231
23 24 23 22 23 26 27 31 43 62 72 73 70 67 66 66 64 67 77 85 94 108 118 117 113 112 113 117 125 133 140 144 145 144 142 139 138 140 142 144 147 151 154 158 161 165 168 173 176 176 175 177 180 183 183 183 182 181 182 183 185 189 193 196 198 198 194 194 199 203 202 203 208 210 211 214 216 219 223 226 224 223 224 226 229
22 23 22 22 27 32 30 28 33 44 59 70 71 70 72 73 70 71 76 82 90 102 108 107 110 115 117 120 128 136 141 143 143 143 141 138 139 141 142 143 146 148 150 155 159 161 161 167 174 175 174 176 178 179 179 180 178 177 179 183 186 189 191 190 189 188 186 187 192 195 195 199 206 208 207 208 211 214 219 223 225 229 232 231 231